Latest Coastal Weather Observations for Northern Endeavour (near 10.5S 126E)

IDD60701

Issued at 5:21 pm CST Tuesday 26 May 2015 (issued every 10 minutes, with the page automatically refreshed every 10 minutes)

About coastal observations | Map of coastal stations | Coastal observations for NT | Marine services | Other Formats
Station Details ID: 200212 Name: NORTHERN ENDEAVOUR Lat: -10.61 Lon: 125.98 Height: 16.0 m
Data from the previous 72 hours. | See also: Recent months for locations in Northern Territory
Date/Time
CST
Temp

°C
Wind Pressure Rain
since 9am
mm
Weather Cloud Vis
km
Sea
Height
m
Swell
Dir
 
Speed
knots
Gust
knots
hPa Trend Height
m
Period
s
Dir
26/05:20pm 28.7 ESE 7 8 1013.0 - - - Partly cloudy 10 - - - -
26/05:10pm 28.8 ESE 7 9 1012.9 - - - - 10 - - - -
26/05:00pm 29.1 ESE 7 10 1012.9 - - - Partly cloudy 10 - - - -
26/04:50pm 28.8 E 6 7 1012.8 - - - Partly cloudy 10 - - - -
26/04:40pm 29.1 ESE 6 7 1012.9 - - - Partly cloudy 10 - - - -
26/04:30pm 29.5 ESE 7 8 1012.9 - - - Partly cloudy 10 - - - -
26/04:20pm 30.4 ESE 6 9 1012.9 - - - Partly cloudy 10 - - - -
26/04:10pm 30.0 ESE 6 8 1012.9 - - - Partly cloudy 10 - - - -
26/04:00pm 29.0 ESE 7 7 1013.0 - - - Partly cloudy 10 - - - -
26/03:50pm 29.2 ESE 8 11 1013.1 - - - Partly cloudy 10 - - - -
26/03:40pm 29.9 ESE 9 10 1013.1 - - - - 10 - - - -
26/03:30pm 31.4 SE 9 10 1013.0 - - - - 10 - - - -
26/03:10pm 30.9 SE 9 10 1013.3 - - - - 10 - - - -
26/03:00pm 31.9 SE 9 10 1013.4 - - - - 10 - - - -
26/02:50pm 32.1 ESE 9 9 1013.4 - - - - 10 - - - -
26/02:40pm 32.0 SE 8 10 1013.5 - - - - 10 - - - -
26/02:30pm 31.4 ESE 8 9 1013.5 - - - - 10 - - - -
26/02:20pm 31.8 SE 7 8 1013.7 - - - - 10 - - - -
26/02:10pm 31.9 SE 8 10 1013.8 - - - - 10 - - - -
26/02:00pm 31.5 SE 8 9 1014.0 - - - - 10 - - - -
26/01:50pm 31.5 ESE 8 9 1014.1 - - - - 10 - - - -
26/01:40pm 31.8 ESE 8 10 1014.2 - - - - 10 - - - -
26/01:30pm 31.7 ESE 8 9 1014.4 - - - - 10 - - - -
26/01:20pm 31.6 ESE 8 8 1014.5 - - - - 10 - - - -
26/01:10pm 31.5 ESE 9 9 1014.7 - - - - 10 - - - -
26/01:00pm 31.2 ESE 10 10 1014.8 - - - - 10 - - - -
26/12:50pm 30.6 ESE 10 10 1014.9 - - - - 10 - - - -
26/12:40pm 30.5 ESE 11 11 1015.0 - - - - 10 - - - -
26/12:30pm 30.3 ESE 11 12 1015.2 - - - - 10 - - - -
26/12:20pm 30.7 ESE 11 12 1015.3 - - - - 10 - - - -
26/12:10pm 30.6 ESE 10 11 1015.4 - - - - 10 - - - -
26/12:00pm 29.4 ESE 8 10 1015.6 - - - - 10 - - - -
26/11:50am 28.9 E 10 9 1015.7 - - - - 10 - - - -
26/11:40am 29.6 E 11 12 1015.9 - - - - 10 - - - -
26/11:30am 29.6 ESE 9 12 1015.8 - - - - 10 - - - -
26/11:20am 28.8 ESE 9 11 1015.9 - - - - 10 - - - -
26/11:10am 28.8 ESE 8 10 1016.0 - - - - 10 - - - -
26/11:00am 29.2 ESE 9 10 1016.1 - - - - 10 - - - -
26/10:50am 28.9 E 7 10 1016.1 - - - - 10 - - - -
26/10:40am 28.9 E 9 10 1016.2 - - - - 10 - - - -
26/10:30am 29.1 E 8 11 1016.1 - - - - 10 - - - -
26/10:20am 28.8 E 8 10 1016.0 - - - - 10 - - - -
26/10:10am 28.5 E 7 11 1016.1 - - - - 10 - - - -
26/10:00am 28.5 E 6 9 1016.0 - - - - 10 - - - -
26/09:50am 28.4 E 7 10 1015.9 - - - - 10 - - - -
26/09:40am 28.3 E 9 11 1015.9 - - - - 10 - - - -
26/09:30am 28.2 E 7 9 1015.8 - - - - 10 - - - -
26/09:20am 28.2 E 8 9 1015.7 - - - - 10 - - - -
26/09:10am 28.1 E 7 12 1015.7 - - - - 10 - - - -
26/09:00am 28.1 E 7 9 1015.7 - - - - 10 - - - -
26/08:50am 28.0 E 7 12 1015.6 - - - - 10 - - - -
26/08:40am 27.9 E 8 12 1015.6 - - - - 10 - - - -
26/08:30am 27.9 E 9 11 1015.6 - - - - 10 - - - -
26/08:20am 27.9 E 8 11 1015.5 - - - - 10 - - - -
26/08:10am 27.9 E 8 9 1015.5 - - - - 10 - - - -
26/08:00am 27.8 E 7 10 1015.4 - - - - 10 - - - -
26/07:50am 27.6 E 7 8 1015.4 - - - - 10 - - - -
26/07:40am 27.5 E 9 10 1015.3 - - - - 10 - - - -
26/07:30am 27.5 E 10 11 1015.3 - - - - 10 - - - -
26/07:20am 27.5 E 12 12 1015.3 - - - - 10 - - - -
26/07:10am 27.4 E 12 11 1015.3 - - - - 10 - - - -
26/07:00am 27.4 E 12 14 1015.2 - - - - 10 - - - -
26/06:50am 27.4 E 10 15 1015.2 - - - - 10 - - - -
26/06:40am 27.3 E 9 10 1015.1 - - - - 10 - - - -
26/06:30am 27.4 E 11 14 1015.0 - - - - 10 - - - -
26/06:20am 27.4 E 12 11 1014.9 - - - - 10 - - - -
26/06:10am 27.4 E 11 14 1014.8 - - - - 10 - - - -
26/06:00am 27.4 E 12 14 1014.6 - - - - 10 - - - -
26/05:50am 27.4 E 11 15 1014.6 - - - - 10 - - - -
26/05:40am 27.3 E 10 13 1014.6 - - - - 10 - - - -
26/05:30am 27.4 E 12 14 1014.5 - - - - 10 - - - -
26/05:20am 27.4 E 12 13 1014.5 - - - - 10 - - - -
26/05:10am 27.3 E 11 13 1014.4 - - - - 10 - - - -
26/05:00am 27.4 E 12 15 1014.4 - - - - 10 - - - -
26/04:50am 27.3 E 12 14 1014.3 - - - - 10 - - - -
26/04:40am 27.3 E 11 15 1014.4 - - - - 10 - - - -
26/04:30am 27.3 E 11 12 1014.4 - - - - 10 - - - -
26/04:20am 27.4 ESE 13 15 1014.3 - - - - 10 - - - -
26/04:10am 27.3 E 11 13 1014.4 - - - - 10 - - - -
26/04:00am 27.4 ESE 12 12 1014.4 - - - - 10 - - - -
26/03:50am 27.4 E 12 14 1014.5 - - - - 10 - - - -
26/03:40am 27.3 ESE 13 13 1014.5 - - - - 10 - - - -
26/03:30am 27.4 ESE 13 13 1014.6 - - - - 10 - - - -
26/03:20am 27.3 ESE 12 15 1014.7 - - - - 10 - - - -
26/03:10am 27.4 ESE 13 15 1014.6 - - - - 10 - - - -
26/03:00am 27.5 E 13 16 1014.7 - - - - 10 - - - -
26/02:50am 27.4 E 12 14 1014.9 - - - - 10 - - - -
26/02:40am 27.5 ESE 14 15 1014.9 - - - - 10 - - - -
26/02:30am 27.4 ESE 13 14 1015.0 - - - - 10 - - - -
26/02:20am 27.5 ESE 12 14 1015.1 - - - - 10 - - - -
26/02:10am 27.5 ESE 13 14 1015.2 - - - - 10 - - - -
26/02:00am 27.5 ESE 13 13 1015.3 - - - - 10 - - - -
26/01:50am 27.6 ESE 14 14 1015.4 - - - - 10 - - - -
26/01:40am 27.5 ESE 13 13 1015.5 - - - - 10 - - - -
26/01:30am 27.6 ESE 12 15 1015.5 - - - - 10 - - - -
26/01:20am 27.5 ESE 13 15 1015.5 - - - - 10 - - - -
26/01:10am 27.5 ESE 13 14 1015.5 - - - - 10 - - - -
26/01:00am 27.6 ESE 13 14 1015.7 - - - - 10 - - - -
26/12:50am 27.6 ESE 13 13 1015.8 - - - - 10 - - - -
26/12:40am 27.6 ESE 12 13 1015.9 - - - - 10 - - - -
26/12:30am 27.6 ESE 13 14 1016.0 - - - - 10 - - - -
26/12:20am 27.7 E 13 15 1016.0 - - - - 10 - - - -
26/12:10am 27.7 E 13 14 1016.1 - - - - 10 - - - -
26/12:00am 27.7 E 12 14 1016.1 - - - - 10 - - - -
 
Date/Time
CST
Temp

°C
Wind Pressure Rain
since 9am
mm
Weather Cloud Vis
km
Sea
Height
m
Swell
Dir
 
Speed
knots
Gust
knots
hPa Trend Height
m
Period
s
Dir
25/11:50pm 27.7 E 12 12 1016.2 - - - - 10 - - - -
25/11:40pm 27.7 ESE 12 15 1016.2 - - - - 10 - - - -
25/11:30pm 27.8 ESE 13 15 1016.3 - - - - 10 - - - -
25/11:20pm 27.7 E 13 12 1016.3 - - - - 10 - - - -
25/11:10pm 27.7 ESE 14 16 1016.3 - - - - 10 - - - -
25/11:00pm 27.7 E 14 15 1016.3 - - - - 10 - - - -
25/10:50pm 27.7 E 13 13 1016.3 - - - - 10 - - - -
25/10:40pm 27.6 E 13 14 1016.2 - - - - 10 - - - -
25/10:30pm 27.6 ESE 13 14 1016.1 - - - - 10 - - - -
25/10:20pm 27.6 ESE 14 15 1016.2 - - - - 10 - - - -
25/10:10pm 27.6 ESE 13 14 1016.1 - - - - 10 - - - -
25/09:50pm 27.6 ESE 13 14 1016.0 - - - - 10 - - - -
25/09:40pm 27.6 ESE 13 12 1015.8 - - - - 10 - - - -
25/09:30pm 27.7 ESE 12 14 1015.7 - - - - 10 - - - -
25/09:20pm 27.6 ESE 12 12 1015.7 - - - - 10 - - - -
25/09:10pm 27.7 ESE 12 14 1015.6 - - - - 10 - - - -
25/09:00pm 27.6 ESE 12 14 1015.4 - - - - 10 - - - -
25/08:50pm 27.6 ESE 12 14 1015.3 - - - - 10 - - - -
25/08:40pm 27.7 ESE 11 14 1015.1 - - - - 10 - - - -
25/08:30pm 27.7 E 11 13 1015.0 - - - - 10 - - - -
25/08:20pm 27.6 E 10 14 1014.9 - - - - 10 - - - -
25/08:10pm 27.7 ESE 10 13 1014.7 - - - - 10 - - - -
25/08:00pm 27.6 ESE 10 13 1014.6 - - - - 10 - - - -
25/07:50pm 27.7 ESE 11 14 1014.5 - - - - 10 - - - -
25/07:40pm 27.8 ESE 12 13 1014.3 - - - - 10 - - - -
25/07:30pm 27.9 ESE 12 14 1014.2 - - - - 10 - - - -
25/07:20pm 27.7 ESE 9 12 1014.0 - - - - 10 - - - -
25/07:10pm 27.7 ESE 9 13 1013.9 - - - - 10 - - - -
25/07:00pm 28.1 ESE 12 14 1013.8 - - - - 10 - - - -
25/06:50pm 27.9 E 11 11 1013.8 - - - - 10 - - - -
25/06:40pm 28.3 E 10 15 1013.7 - - - - 10 - - - -
25/06:30pm 28.3 ESE 11 12 1013.6 - - - - 10 - - - -
25/06:20pm 28.6 E 12 13 1013.5 - - - - 10 - - - -
25/06:10pm 29.2 E 13 15 1013.4 - - - - 10 - - - -
25/06:00pm 28.8 E 10 12 1013.3 - - - - 10 - - - -
25/05:50pm 28.9 E 10 14 1013.2 - - - - 10 - - - -
25/05:40pm 29.2 E 10 14 1013.2 - - - - 10 - - - -
25/05:30pm 29.2 E 12 11 1013.1 - - - - 10 - - - -
25/05:20pm 29.3 E 9 13 1013.0 - - - - 10 - - - -
25/05:10pm 29.0 E 10 13 1012.9 - - - - 10 - - - -
25/05:00pm 29.1 E 8 9 1012.8 - - - - 10 - - - -
25/04:50pm 29.3 ESE 11 11 1012.9 - - - - 10 - - - -
25/04:40pm 29.5 E 12 12 1012.9 - - - - 10 - - - -
25/04:30pm 29.9 E 10 13 1013.0 - - - - 10 - - - -
25/04:20pm 28.9 E 7 11 1013.0 - - - - 10 - - - -
25/04:10pm 29.2 E 10 11 1013.0 - - - - 10 - - - -
25/04:00pm 29.6 ESE 10 10 1013.1 - - - - 10 - - - -
25/03:50pm 29.0 E 8 10 1013.2 - - - - 10 - - - -
25/03:40pm 29.1 ESE 9 10 1013.2 - - - - 10 - - - -
25/03:30pm 29.0 E 7 11 1013.3 - - - - 10 - - - -
25/03:20pm 29.4 E 10 12 1013.4 - - - - 10 - - - -
25/03:10pm 29.5 ESE 9 11 1013.5 - - - - 10 - - - -
25/03:00pm 30.3 ESE 11 12 1013.7 - - - - 10 - - - -
25/02:50pm 29.8 ESE 10 11 1013.8 - - - - 10 - - - -
25/02:40pm 29.8 E 11 12 1013.9 - - - - 10 - - - -
25/02:30pm 30.3 ESE 11 10 1014.0 - - - - 10 - - - -
25/02:20pm 30.0 ESE 11 12 1014.1 - - - - 10 - - - -
25/02:10pm 30.3 ESE 11 10 1014.3 - - - - 10 - - - -
25/02:00pm 30.6 ESE 12 12 1014.4 - - - - 10 - - - -
25/01:50pm 30.9 E 11 13 1014.6 - - - - 10 - - - -
25/01:40pm 30.8 E 11 12 1014.7 - - - Partly cloudy 10 - - - -
25/01:30pm 31.2 E 12 12 1014.8 - - - Partly cloudy 10 - - - -
25/01:20pm 30.7 ESE 12 13 1014.9 - - - Partly cloudy 10 - - - -
25/01:10pm 30.7 E 12 13 1014.9 - - - - 10 - - - -
25/01:00pm 30.6 E 12 14 1015.0 - - - - 10 - - - -
25/12:50pm 30.1 E 12 13 1015.1 - - - - 10 - - - -
25/12:40pm 29.5 E 12 13 1015.2 - - - - 10 - - - -
25/12:30pm 29.5 E 12 13 1015.4 - - - - 10 - - - -
25/12:20pm 29.5 E 12 14 1015.5 - - - - 10 - - - -
25/12:10pm 28.6 E 9 12 1015.6 - - - - 10 - - - -
25/12:00pm 29.4 E 12 13 1015.7 - - - - 10 - - - -
25/11:50am 29.4 E 11 15 1015.8 - - - - 10 - - - -
25/11:40am 29.3 E 12 14 1016.0 - - - - 10 - - - -
25/11:30am 29.1 E 12 14 1016.0 - - - - 10 - - - -
25/11:20am 28.7 E 12 13 1016.0 - - - - 10 - - - -
25/11:10am 29.2 E 12 13 1016.1 - - - - 10 - - - -
25/11:00am 28.4 E 11 11 1016.3 - - - - 10 - - - -
25/10:40am 28.9 E 13 15 1016.3 - - - Partly cloudy 10 - - - -
25/10:30am 28.8 E 12 13 1016.4 - - - Partly cloudy 10 - - - -
25/10:20am 28.8 E 13 13 1016.6 - - - - 10 - - - -
25/10:10am 28.3 E 10 14 1016.5 - - - - 10 - - - -
25/10:00am 28.8 E 12 13 1016.6 - - - - 10 - - - -
25/09:50am 28.8 E 13 13 1016.5 - - - - 10 - - - -
25/09:40am 28.2 E 9 11 1016.5 - - - - 10 - - - -
25/09:30am 28.5 E 11 15 1016.5 - - - - 10 - - - -
25/09:20am 28.2 E 11 11 1016.5 - - - - 10 - - - -
25/09:10am 28.2 E 10 13 1016.4 - - - - 10 - - - -
25/09:00am 28.1 E 10 12 1016.4 - - - - 10 - - - -
25/08:50am 28.5 E 11 13 1016.3 - - - - 10 - - - -
25/08:40am 28.0 E 11 10 1016.2 - - - - 10 - - - -
25/08:30am 27.8 E 10 13 1016.0 - - - - 10 - - - -
25/08:20am 27.9 E 11 14 1015.9 - - - - 10 - - - -
25/08:10am 27.7 E 10 11 1015.8 - - - - 10 - - - -
25/08:00am 27.5 E 10 12 1015.6 - - - - 10 - - - -
25/07:50am 27.3 E 12 14 1015.4 - - - - 10 - - - -
25/07:40am 27.1 E 12 14 1015.3 - - - - 10 - - - -
25/07:30am 27.2 E 12 14 1015.1 - - - - 10 - - - -
25/07:20am 27.2 E 12 16 1015.1 - - - - 10 - - - -
25/07:10am 27.2 E 13 15 1014.9 - - - - 10 - - - -
25/07:00am 27.2 E 13 17 1014.6 - - - - 10 - - - -
25/06:50am 27.2 E 12 18 1014.5 - - - - 10 - - - -
25/06:40am 27.2 E 12 14 1014.5 - - - - 10 - - - -
25/06:30am 27.2 E 12 16 1014.5 - - - - 10 - - - -
25/06:20am 27.3 E 13 18 1014.3 - - - - 10 - - - -
25/06:10am 27.3 E 14 15 1014.3 - - - - 10 - - - -
25/06:00am 27.4 E 15 18 1014.2 - - - - 10 - - - -
25/05:50am 27.4 E 15 17 1014.2 - - - - 10 - - - -
25/05:40am 27.3 E 14 14 1014.1 - - - - 10 - - - -
25/05:30am 27.4 E 15 17 1014.0 - - - - 10 - - - -
25/05:20am 27.4 E 12 16 1013.9 - - - - 10 - - - -
25/05:10am 27.3 E 12 14 1013.9 - - - - 10 - - - -
25/05:00am 27.2 E 11 17 1013.9 - - - - 10 - - - -
25/04:50am 27.2 E 12 15 1014.0 - - - - 10 - - - -
25/04:40am 27.1 E 11 14 1014.0 - - - - 10 - - - -
25/04:30am 27.2 E 11 15 1014.1 - - - Partly cloudy 10 - - - -
25/04:20am 27.1 E 11 15 1014.1 - - - Partly cloudy 10 - - - -
25/04:10am 27.1 E 9 12 1014.2 - - - Partly cloudy 10 - - - -
25/04:00am 27.2 E 10 13 1014.2 - - - Cloudy 10 - - - -
25/03:50am 27.2 E 11 14 1014.2 - - - Partly cloudy 10 - - - -
25/03:40am 27.2 E 11 13 1014.2 - - - Partly cloudy 10 - - - -
25/03:30am 27.2 E 11 16 1014.2 - - - Partly cloudy 10 - - - -
25/03:20am 27.2 E 10 13 1014.4 - - - Partly cloudy 10 - - - -
25/03:10am 27.1 E 12 16 1014.4 - - - Partly cloudy 10 - - - -
25/03:00am 27.1 E 12 15 1014.5 - - - Partly cloudy 10 - - - -
25/02:50am 27.1 E 12 17 1014.5 - - - Partly cloudy 10 - - - -
25/02:40am 27.1 E 12 15 1014.6 - - - Partly cloudy 10 - - - -
25/02:30am 27.2 E 13 15 1014.7 - - - Partly cloudy 10 - - - -
25/02:20am 27.2 E 12 14 1014.8 - - - Partly cloudy 10 - - - -
25/02:10am 27.2 E 12 16 1014.8 - - - - 10 - - - -
25/02:00am 27.2 E 13 16 1014.9 - - - - 10 - - - -
25/01:50am 27.2 E 12 16 1015.0 - - - - 10 - - - -
25/01:40am 27.5 E 14 18 1015.1 - - - - 10 - - - -
25/01:30am 27.3 E 13 18 1015.3 - - - - 10 - - - -
25/01:20am 27.4 E 13 17 1015.1 - - - - 10 - - - -
25/01:10am 27.4 E 13 13 1015.2 - - - - 10 - - - -
25/01:00am 27.3 E 12 16 1015.2 - - - - 10 - - - -
25/12:50am 27.4 E 12 16 1015.2 - - - - 10 - - - -
25/12:40am 27.4 E 13 17 1015.2 - - - - 10 - - - -
25/12:30am 27.4 E 12 17 1015.3 - - - - 10 - - - -
25/12:20am 27.5 E 13 16 1015.3 - - - - 10 - - - -
25/12:10am 27.5 E 13 20 1015.3 - - - Partly cloudy 10 - - - -
25/12:00am 27.5 E 11 14 1015.4 - - - - 10 - - - -
 
Date/Time
CST
Temp

°C
Wind Pressure Rain
since 9am
mm
Weather Cloud Vis
km
Sea
Height
m
Swell
Dir
 
Speed
knots
Gust
knots
hPa Trend Height
m
Period
s
Dir
24/11:50pm 27.4 E 12 17 1015.3 - - - - 10 - - - -
24/11:40pm 27.7 ESE 15 18 1015.3 - - - - 10 - - - -
24/11:30pm 27.5 E 14 14 1015.3 - - - - 10 - - - -
24/11:20pm 27.6 E 12 18 1015.3 - - - Partly cloudy 10 - - - -
24/11:10pm 27.6 E 12 18 1015.3 - - - Partly cloudy 10 - - - -
24/11:00pm 27.6 E 12 16 1015.3 - - - Partly cloudy 10 - - - -
24/10:50pm 27.6 E 14 16 1015.4 - - - Partly cloudy 10 - - - -
24/10:40pm 27.7 E 14 17 1015.3 - - - Partly cloudy 10 - - - -
24/10:30pm 27.7 E 15 15 1015.4 - - - Partly cloudy 10 - - - -
24/10:20pm 27.8 E 13 18 1015.3 - - - Partly cloudy 10 - - - -
24/10:10pm 28.0 ESE 16 19 1015.3 - - - Partly cloudy 10 - - - -
24/10:00pm 27.8 E 14 17 1015.2 - - - Partly cloudy 10 - - - -
24/09:50pm 27.8 E 15 18 1015.1 - - - Partly cloudy 10 - - - -
24/09:40pm 27.8 E 15 19 1014.9 - - - Partly cloudy 10 - - - -
24/09:30pm 27.9 E 15 18 1014.9 - - - - 10 - - - -
24/09:20pm 27.8 ESE 15 17 1014.8 - - - - 10 - - - -
24/09:10pm 27.7 E 12 18 1014.7 - - - - 10 - - - -
24/09:00pm 27.8 ESE 16 17 1014.7 - - - - 10 - - - -
24/08:50pm 27.9 ESE 15 18 1014.5 - - - - 10 - - - -
24/08:40pm 27.9 ESE 15 17 1014.4 - - - - 10 - - - -
24/08:30pm 27.9 ESE 15 17 1014.3 - - - - 10 - - - -
24/08:20pm 27.9 ESE 15 16 1014.2 - - - - 10 - - - -
24/08:10pm 28.0 ESE 14 17 1014.0 - - - - 10 - - - -
24/08:00pm 27.9 ESE 14 16 1014.0 - - - - 10 - - - -
24/07:50pm 27.9 ESE 14 15 1013.9 - - - - 10 - - - -
24/07:40pm 28.0 ESE 14 14 1013.9 - - - - 10 - - - -
24/07:30pm 28.0 ESE 13 16 1013.7 - - - Partly cloudy 10 - - - -
24/07:20pm 27.9 ESE 13 14 1013.6 - - - - 10 - - - -
24/07:10pm 28.0 E 12 14 1013.5 - - - - 10 - - - -
24/07:00pm 28.2 ESE 13 15 1013.3 - - - - 10 - - - -
24/06:50pm 28.0 E 11 13 1013.2 - - - - 10 - - - -
24/06:40pm 28.5 ESE 13 14 1013.1 - - - Partly cloudy 10 - - - -
24/06:30pm 28.8 ESE 13 13 1013.0 - - - Partly cloudy 10 - - - -
24/06:20pm 28.8 ESE 13 13 1012.9 - - - Partly cloudy 10 - - - -
24/06:10pm 29.2 ESE 13 14 1012.8 - - - Partly cloudy 10 - - - -
24/06:00pm 29.1 E 12 14 1012.7 - - - Partly cloudy 10 - - - -
24/05:50pm 29.3 ESE 13 14 1012.6 - - - Partly cloudy 10 - - - -
24/05:40pm 29.6 ESE 12 13 1012.4 - - - - 10 - - - -
24/05:30pm 30.2 E 12 13 1012.3 - - - - 10 - - - -
24/05:20pm 29.7 ESE 11 14 1012.3 - - - - 10 - - - -
24/05:10pm 28.7 ESE 10 12 1012.2 - - - - 10 - - - -
24/05:00pm 29.1 ESE 12 14 1012.1 - - - - 10 - - - -
24/04:50pm 29.9 ESE 10 13 1012.1 - - - - 10 - - - -
24/04:40pm 29.2 E 10 12 1012.1 - - - - 10 - - - -
24/04:30pm 30.2 E 12 13 1012.1 - - - - 10 - - - -
24/04:20pm 30.3 E 12 13 1012.1 - - - Partly cloudy 10 - - - -
24/04:10pm 31.0 ESE 12 14 1012.1 - - - Partly cloudy 10 - - - -
24/04:00pm 29.7 E 12 13 1012.1 - - - Partly cloudy 10 - - - -
24/03:50pm 30.2 ESE 12 13 1012.1 - - - - 10 - - - -
24/03:40pm 30.3 E 12 13 1012.1 - - - - 10 - - - -
24/03:30pm 29.9 ESE 11 11 1012.2 - - - Partly cloudy 10 - - - -
24/03:20pm 31.0 ESE 12 13 1012.2 - - - Partly cloudy 10 - - - -
24/03:10pm 30.3 ESE 12 13 1012.4 - - - Partly cloudy 10 - - - -
24/03:00pm 30.5 ESE 12 13 1012.4 - - - Partly cloudy 10 - - - -
24/02:50pm 31.2 ESE 11 13 1012.4 - - - Partly cloudy 10 - - - -
24/02:40pm 31.3 ESE 11 13 1012.5 - - - Partly cloudy 10 - - - -
24/02:30pm 30.3 ESE 10 12 1012.6 - - - Partly cloudy 10 - - - -
24/02:20pm 30.3 ESE 10 11 1012.8 - - - Partly cloudy 10 - - - -
24/02:10pm 30.4 ESE 11 11 1012.8 - - - Partly cloudy 10 - - - -
24/02:00pm 29.9 E 11 14 1013.0 - - - Partly cloudy 10 - - - -
24/01:50pm 30.0 E 11 12 1013.1 - - - Partly cloudy 10 - - - -
24/01:40pm 30.3 ESE 11 14 1013.3 - - - Partly cloudy 10 - - - -
24/01:30pm 30.6 ESE 12 13 1013.5 - - - Partly cloudy 10 - - - -
24/01:20pm 30.4 E 11 13 1013.6 - - - Partly cloudy 10 - - - -
24/01:10pm 30.1 ESE 13 14 1013.7 - - - Partly cloudy 10 - - - -
24/01:00pm 30.7 ESE 13 16 1013.9 - - - Partly cloudy 10 - - - -
24/12:50pm 30.9 ESE 13 13 1013.9 - - - Partly cloudy 10 - - - -
24/12:40pm 30.9 ESE 14 16 1014.1 - - - Partly cloudy 10 - - - -
24/12:30pm 30.6 ESE 13 14 1014.2 - - - Partly cloudy 10 - - - -
24/12:20pm 30.5 ESE 13 14 1014.2 - - - Partly cloudy 10 - - - -
24/12:10pm 30.6 ESE 13 13 1014.3 - - - Partly cloudy 10 - - - -
24/12:00pm 30.6 ESE 12 15 1014.4 - - - Partly cloudy 10 - - - -
24/11:50am 30.0 E 13 14 1014.5 - - - - 10 - - - -
24/11:40am 30.2 ESE 13 14 1014.5 - - - - 10 - - - -
24/11:30am 30.2 ESE 14 15 1014.5 - - - - 10 - - - -
24/11:20am 30.2 ESE 14 15 1014.6 - - - Partly cloudy 10 - - - -
24/11:10am 30.0 ESE 14 14 1014.7 - - - Partly cloudy 10 - - - -
24/11:00am 29.8 ESE 14 16 1014.7 - - - Partly cloudy 10 - - - -
24/10:50am 29.7 E 13 14 1014.7 - - - Partly cloudy 10 - - - -
24/10:40am 29.8 ESE 13 14 1014.8 - - - Partly cloudy 10 - - - -
24/10:30am 29.0 ESE 13 14 1014.9 - - - Partly cloudy 10 - - - -
24/10:20am 29.1 E 13 13 1014.9 - - - Partly cloudy 10 - - - -
24/10:10am 29.6 E 14 14 1014.9 - - - Partly cloudy 10 - - - -
24/10:00am 29.2 E 14 15 1015.0 - - - - 10 - - - -
24/09:50am 28.7 E 13 14 1015.0 - - - - 10 - - - -
24/09:40am 29.1 E 13 14 1015.0 - - - - 10 - - - -
24/09:30am 28.6 E 12 14 1015.0 - - - - 10 - - - -
24/09:20am 28.8 E 12 14 1015.1 - - - Partly cloudy 10 - - - -
24/09:10am 28.3 E 12 12 1015.1 - - - Partly cloudy 10 - - - -
24/09:00am 28.5 E 11 12 1015.1 - - - Partly cloudy 10 - - - -
24/08:50am 28.1 E 11 12 1015.0 - - - Partly cloudy 10 - - - -
24/08:40am 27.9 E 11 12 1014.8 - - - Partly cloudy 10 - - - -
24/08:30am 28.4 E 12 12 1014.8 - - - Partly cloudy 10 - - - -
24/08:20am 27.7 E 9 13 1014.7 - - - Partly cloudy 10 - - - -
24/08:10am 27.7 ESE 10 11 1014.6 - - - Partly cloudy 10 - - - -
24/08:00am 27.6 ESE 11 11 1014.5 - - - Partly cloudy 10 - - - -
24/07:50am 27.4 ESE 11 10 1014.4 - - - Partly cloudy 10 - - - -
24/07:40am 27.3 ESE 12 11 1014.3 - - - Partly cloudy 10 - - - -
24/07:30am 27.2 ESE 12 12 1014.2 - - - Partly cloudy 10 - - - -
24/07:20am 27.3 E 10 14 1014.1 - - - Partly cloudy 10 - - - -
24/07:10am 27.1 E 9 10 1014.1 - - - Partly cloudy 10 - - - -
24/07:00am 27.3 E 11 13 1014.1 - - - Partly cloudy 10 - - - -
24/06:50am 27.3 E 10 13 1014.0 - - - Partly cloudy 10 - - - -
24/06:40am 27.1 E 9 13 1013.9 - - - Partly cloudy 10 - - - -
24/06:30am 27.2 E 10 12 1013.8 - - - Partly cloudy 10 - - - -
24/06:20am 27.3 E 11 14 1013.7 - - - Partly cloudy 10 - - - -
24/06:10am 27.3 E 10 11 1013.6 - - - Partly cloudy 10 - - - -
24/06:00am 27.2 ESE 11 11 1013.5 - - - Partly cloudy 10 - - - -
24/05:50am 27.3 E 12 11 1013.4 - - - Partly cloudy 10 - - - -
24/05:40am 27.2 E 11 13 1013.3 - - - Partly cloudy 10 - - - -
24/05:30am 27.3 E 12 13 1013.2 - - - Partly cloudy 10 - - - -
24/05:20am 27.3 E 11 13 1013.2 - - - Partly cloudy 10 - - - -
24/05:10am 27.4 E 13 14 1013.3 - - - Partly cloudy 10 - - - -
24/05:00am 27.3 E 12 15 1013.3 - - - Partly cloudy 10 - - - -
24/04:50am 27.4 E 13 13 1013.4 - - - Partly cloudy 10 - - - -
24/04:40am 27.4 E 13 15 1013.4 - - - Partly cloudy 10 - - - -
24/04:30am 27.3 E 11 14 1013.4 - - - Partly cloudy 10 - - - -
24/04:20am 27.4 E 11 14 1013.4 - - - Partly cloudy 10 - - - -
24/04:10am 27.4 E 11 14 1013.5 - - - Partly cloudy 10 - - - -
24/04:00am 27.4 E 13 14 1013.4 - - - Partly cloudy 10 - - - -
24/03:50am 27.3 E 10 14 1013.4 - - - Partly cloudy 10 - - - -
24/03:40am 27.3 E 10 15 1013.3 - - - Partly cloudy 10 - - - -
24/03:30am 27.3 E 10 13 1013.5 - - - Partly cloudy 10 - - - -
24/03:20am 27.3 E 9 12 1013.4 - - - Partly cloudy 10 - - - -
24/03:10am 27.3 E 10 13 1013.4 - - - Partly cloudy 10 - - - -
24/03:00am 27.3 E 11 14 1013.4 - - - Partly cloudy 10 - - - -
24/02:50am 27.3 E 11 14 1013.5 - - - Partly cloudy 10 - - - -
24/02:40am 27.3 E 13 14 1013.6 - - - Partly cloudy 10 - - - -
24/02:30am 27.3 E 13 15 1013.6 - - - Partly cloudy 10 - - - -
24/02:20am 27.4 E 12 15 1013.7 - - - Partly cloudy 10 - - - -
24/02:10am 27.4 E 13 15 1013.7 - - - Partly cloudy 10 - - - -
24/02:00am 27.4 E 11 17 1013.7 - - - Partly cloudy 10 - - - -
24/01:50am 27.4 E 12 15 1013.8 - - - Partly cloudy 10 - - - -
24/01:40am 27.4 E 12 14 1013.8 - - - Partly cloudy 10 - - - -
24/01:30am 27.6 E 12 17 1013.9 - - - Partly cloudy 10 - - - -
24/01:20am 27.5 E 13 15 1014.1 - - - Partly cloudy 10 - - - -
24/01:10am 27.6 E 16 16 1014.1 - - - - 10 - - - -
24/01:00am 27.6 E 15 17 1014.3 - - - - 10 - - - -
24/12:50am 27.6 E 15 16 1014.3 - - - - 10 - - - -
24/12:40am 27.6 E 16 16 1014.3 - - - - 10 - - - -
24/12:30am 27.7 E 15 15 1014.4 - - - - 10 - - - -
24/12:20am 27.7 E 16 18 1014.4 - - - - 10 - - - -
24/12:10am 27.7 E 16 16 1014.4 - - - - 10 - - - -
24/12:00am 27.8 E 17 20 1014.4 - - - - 10 - - - -
 
Date/Time
CST
Temp

°C
Wind Pressure Rain
since 9am
mm
Weather Cloud Vis
km
Sea
Height
m
Swell
Dir
 
Speed
knots
Gust
knots
hPa Trend Height
m
Period
s
Dir
23/11:50pm 27.9 E 16 17 1014.4 - - - Partly cloudy 10 - - - -
23/11:40pm 27.8 E 17 18 1014.4 - - - Partly cloudy 10 - - - -
23/11:30pm 27.7 E 17 17 1014.4 - - - Partly cloudy 10 - - - -
23/11:20pm 27.8 E 17 18 1014.5 - - - - 10 - - - -
23/11:10pm 28.0 E 17 19 1014.5 - - - - 10 - - - -
23/11:00pm 27.9 E 17 19 1014.6 - - - - 10 - - - -
23/10:50pm 27.9 E 17 19 1014.5 - - - - 10 - - - -
23/10:40pm 27.9 E 17 17 1014.4 - - - - 10 - - - -
23/10:30pm 27.9 E 16 17 1014.4 - - - - 10 - - - -
23/10:20pm 27.8 E 17 18 1014.4 - - - - 10 - - - -
23/10:10pm 27.8 E 17 18 1014.3 - - - Partly cloudy 10 - - - -
23/10:00pm 27.9 E 18 19 1014.2 - - - Partly cloudy 10 - - - -
23/09:50pm 27.9 E 16 17 1014.1 - - - Partly cloudy 10 - - - -
23/09:40pm 28.0 E 17 17 1014.1 - - - Partly cloudy 10 - - - -
23/09:30pm 28.0 E 16 18 1014.1 - - - Partly cloudy 10 - - - -
23/09:20pm 28.1 E 16 17 1014.0 - - - Partly cloudy 10 - - - -
23/09:10pm 28.0 E 16 17 1013.9 - - - Partly cloudy 10 - - - -
23/09:00pm 28.0 E 15 17 1013.9 - - - Partly cloudy 10 - - - -
23/08:40pm 28.2 E 17 17 1013.7 - - - Partly cloudy 10 - - - -
23/08:30pm 28.1 E 16 17 1013.5 - - - Partly cloudy 10 - - - -
23/08:20pm 28.0 E 14 15 1013.4 - - - Partly cloudy 10 - - - -
23/08:10pm 27.9 E 13 14 1013.4 - - - Partly cloudy 10 - - - -
23/08:00pm 28.0 E 14 15 1013.4 - - - Partly cloudy 10 - - - -
23/07:50pm 27.8 E 14 14 1013.4 - - - Partly cloudy 10 - - - -
23/07:40pm 27.9 E 14 16 1013.3 - - - Partly cloudy 10 - - - -
23/07:30pm 27.8 E 13 14 1013.1 - - - Partly cloudy 10 - - - -
23/07:20pm 27.6 ESE 13 15 1013.0 - - - Partly cloudy 10 - - - -
23/07:10pm 27.6 ESE 12 13 1012.9 - - - Partly cloudy 10 - - - -
23/07:00pm 27.7 ESE 13 13 1012.9 - - - Partly cloudy 10 - - - -
23/06:50pm 27.8 ESE 11 13 1012.8 - - - Partly cloudy 10 - - - -
23/06:40pm 27.8 ESE 12 13 1012.7 - - - Partly cloudy 10 - - - -
23/06:30pm 27.9 ESE 12 13 1012.7 - - - Partly cloudy 10 - - - -
23/06:20pm 27.7 ESE 11 12 1012.7 - - - Partly cloudy 10 - - - -
23/06:10pm 28.4 ESE 13 13 1012.6 - - - Partly cloudy 10 - - - -
23/06:00pm 28.8 ESE 12 13 1012.6 - - - Partly cloudy 10 - - - -
23/05:50pm 28.9 ESE 11 11 1012.6 - - - Partly cloudy 10 - - - -
23/05:40pm 29.1 ESE 12 14 1012.6 - - - Cloudy 10 - - - -
23/05:30pm 29.0 ESE 13 13 1012.5 - - - Cloudy 10 - - - -

Other Formats:

Comma delimited format used in spreadsheet applications
http://www.bom.gov.au/fwo/IDD60701/IDD60701.95100.axf

JavaScript Object Notation format (JSON) in row-major order
http://www.bom.gov.au/fwo/IDD60701/IDD60701.95100.json